| time (UTC) | temp F | wind direction | speed MPH | gust MPH | rain 1hr in | rain 24hr in | rain mn in | humidity % | barometer mb |
| 20260903141712 | 69 | 306 | 2.0 | 2.0 | 0.00 | 0.26 | 0.26 | 99 | 1011.7 |
| 20260903141207 | 70 | 358 | 1.0 | 1.0 | 0.00 | 0.26 | 0.26 | 99 | 1011.5 |
| 20260903140703 | 69 | 264 | 1.0 | 1.0 | 0.00 | 0.26 | 0.26 | 99 | 1011.6 |
| 20260903140158 | 69 | 68 | 0.0 | 0.0 | 0.00 | 0.26 | 0.26 | 99 | 1011.6 |
| 20260903135653 | 69 | 217 | 0.0 | 1.0 | 0.00 | 0.26 | 0.26 | 99 | 1011.7 |
| 20260903135148 | 69 | 175 | 0.0 | 0.0 | 0.00 | 0.26 | 0.26 | 99 | 1011.7 |
| 20260903134647 | 69 | 339 | 0.0 | 0.0 | 0.00 | 0.26 | 0.26 | 99 | 1011.8 |
| 20260903134143 | 69 | 35 | 0.0 | 0.0 | 0.00 | 0.26 | 0.26 | 99 | 1011.7 |
| 20260903133641 | 69 | 38 | 0.0 | 0.0 | 0.00 | 0.26 | 0.26 | 99 | 1011.7 |
| 20260903133136 | 69 | 354 | 0.0 | 0.0 | 0.00 | 0.26 | 0.26 | 99 | 1011.8 |
| 20260903132630 | 69 | 92 | 0.0 | 0.0 | 0.00 | 0.26 | 0.26 | 99 | 1011.8 |
| 20260903132125 | 69 | 323 | 0.0 | 0.0 | 0.00 | 0.26 | 0.26 | 99 | 1011.7 |
| 20260903131620 | 69 | 352 | 0.0 | 0.0 | 0.00 | 0.26 | 0.26 | 99 | 1011.8 |
| 20260903131119 | 69 | 44 | 0.0 | 0.0 | 0.00 | 0.26 | 0.26 | 99 | 1011.7 |
| 20260903130616 | 69 | 250 | 1.0 | 2.0 | 0.00 | 0.26 | 0.26 | 99 | 1011.7 |
| 20260903130109 | 68 | 352 | 0.0 | 0.0 | 0.00 | 0.26 | 0.26 | 99 | 1012.0 |
| 20260903125607 | 68 | 135 | 0.0 | 0.0 | 0.00 | 0.26 | 0.26 | 99 | 1012.1 |
| 20260903125103 | 68 | 36 | 0.0 | 1.0 | 0.00 | 0.26 | 0.26 | 99 | 1012.4 |
| 20260903124603 | 68 | 146 | 0.0 | 0.0 | 0.00 | 0.26 | 0.26 | 99 | 1012.2 |
| 20260903124102 | 68 | 146 | 0.0 | 0.0 | 0.00 | 0.26 | 0.26 | 99 | 1012.1 |
| 20260903123602 | 68 | 146 | 0.0 | 0.0 | 0.00 | 0.26 | 0.26 | 99 | 1012.4 |
| 20260903123100 | 68 | 146 | 0.0 | 0.0 | 0.00 | 0.26 | 0.26 | 99 | 1011.9 |
| 20260903122555 | 68 | 147 | 0.0 | 0.0 | 0.00 | 0.26 | 0.26 | 99 | 1012.3 |
| 20260903122055 | 68 | 137 | 0.0 | 0.0 | 0.00 | 0.26 | 0.26 | 99 | 1012.4 |
| 20260903121549 | 68 | 156 | 0.0 | 0.0 | 0.07 | 0.26 | 0.26 | 99 | 1012.2 |
| 20260903121045 | 67 | 134 | 0.0 | 0.0 | 0.26 | 0.26 | 0.26 | 99 | 1012.3 |
| 20260903120544 | 67 | 135 | 0.0 | 0.0 | 0.19 | 0.25 | 0.25 | 99 | 1012.6 |
| 20260903120039 | 67 | 140 | 0.0 | 0.0 | 0.00 | 0.22 | 0.22 | 99 | 1012.4 |
| 20260903115537 | 67 | 139 | 0.0 | 0.0 | 0.00 | 0.22 | 0.22 | 99 | 1012.5 |
| 20260903115032 | 67 | 139 | 0.0 | 0.0 | 0.00 | 0.22 | 0.22 | 99 | 1012.7 |
| 20260903114527 | 67 | 139 | 0.0 | 0.0 | 0.00 | 0.22 | 0.22 | 99 | 1012.5 |
| 20260903114023 | 67 | 139 | 0.0 | 0.0 | 0.00 | 0.22 | 0.22 | 99 | 1012.7 |
| 20260903113518 | 67 | 141 | 0.0 | 0.0 | 0.00 | 0.22 | 0.22 | 99 | 1012.5 |
| 20260903113015 | 67 | 141 | 0.0 | 0.0 | 0.00 | 0.22 | 0.22 | 99 | 1012.7 |
| 20260903112510 | 67 | 141 | 0.0 | 0.0 | 0.00 | 0.22 | 0.22 | 99 | 1012.5 |
| 20260903112009 | 67 | 141 | 0.0 | 0.0 | 0.00 | 0.22 | 0.22 | 99 | 1012.7 |
| 20260903111503 | 67 | 141 | 0.0 | 0.0 | 0.00 | 0.22 | 0.22 | 99 | 1012.2 |
| 20260903111000 | 67 | 141 | 0.0 | 0.0 | 0.00 | 0.22 | 0.22 | 99 | 1012.4 |
| 20260903110455 | 67 | 142 | 0.0 | 0.0 | 0.00 | 0.22 | 0.22 | 99 | 1012.4 |
| 20260903105949 | 67 | 142 | 0.0 | 0.0 | 0.00 | 0.22 | 0.22 | 99 | 1012.5 |
| 20260903105445 | 67 | 142 | 0.0 | 0.0 | 0.00 | 0.22 | 0.22 | 99 | 1012.6 |
| 20260903104944 | 67 | 142 | 0.0 | 0.0 | 0.00 | 0.22 | 0.22 | 99 | 1012.2 |
| 20260903104444 | 67 | 321 | 0.0 | 0.0 | 0.00 | 0.22 | 0.22 | 99 | 1012.6 |
| 20260903103941 | 67 | 268 | 1.0 | 1.0 | 0.00 | 0.22 | 0.22 | 99 | 1012.5 |
| 20260903103436 | 67 | 152 | 0.0 | 1.0 | 0.00 | 0.22 | 0.22 | 99 | 1012.4 |
| 20260903102932 | 67 | 141 | 0.0 | 0.0 | 0.00 | 0.22 | 0.22 | 99 | 1012.7 |
| 20260903102427 | 67 | 356 | 0.0 | 0.0 | 0.00 | 0.22 | 0.22 | 99 | 1012.6 |
| 20260903101926 | 67 | 148 | 0.0 | 0.0 | 0.00 | 0.22 | 0.22 | 99 | 1012.4 |
| 20260903101421 | 67 | 117 | 0.0 | 0.0 | 0.00 | 0.22 | 0.22 | 99 | 1012.3 |
| 20260903100916 | 67 | 22 | 0.0 | 0.0 | 0.00 | 0.22 | 0.22 | 99 | 1012.5 |
| 20260903100411 | 67 | 268 | 0.0 | 0.0 | 0.00 | 0.22 | 0.22 | 99 | 1012.5 |
| 20260903095908 | 67 | 127 | 0.0 | 0.0 | 0.00 | 0.22 | 0.22 | 99 | 1012.2 |
| 20260903095403 | 67 | 194 | 0.0 | 1.0 | 0.00 | 0.22 | 0.22 | 99 | 1012.2 |
| 20260903094857 | 67 | 301 | 1.0 | 2.0 | 0.00 | 0.22 | 0.22 | 99 | 1012.3 |
| 20260903094352 | 67 | 359 | 0.0 | 0.0 | 0.00 | 0.22 | 0.22 | 99 | 1012.1 |
| 20260903093848 | 67 | 274 | 0.0 | 1.0 | 0.00 | 0.22 | 0.22 | 99 | 1012.1 |
| 20260903093342 | 67 | 273 | 0.0 | 1.0 | 0.00 | 0.22 | 0.22 | 99 | 1012.3 |
| 20260903092838 | 67 | 338 | 0.0 | 0.0 | 0.00 | 0.22 | 0.22 | 99 | 1012.0 |
| 20260903092332 | 67 | 264 | 0.0 | 0.0 | 0.00 | 0.22 | 0.22 | 99 | 1012.2 |
| 20260903091831 | 67 | 329 | 0.0 | 0.0 | 0.00 | 0.22 | 0.22 | 99 | 1012.2 |
| 20260903091325 | 67 | 294 | 0.0 | 1.0 | 0.00 | 0.22 | 0.22 | 99 | 1012.2 |
| 20260903090821 | 67 | 274 | 1.0 | 1.0 | 0.00 | 0.22 | 0.22 | 99 | 1012.3 |
| 20260903090320 | 67 | 252 | 0.0 | 1.0 | 0.00 | 0.22 | 0.22 | 99 | 1012.2 |
| 20260903085818 | 67 | 270 | 1.0 | 1.0 | 0.00 | 0.22 | 0.22 | 99 | 1012.3 |
| 20260903085313 | 67 | 230 | 0.0 | 1.0 | 0.00 | 0.22 | 0.22 | 99 | 1012.1 |
| 20260903084812 | 66 | 95 | 0.0 | 0.0 | 0.00 | 0.22 | 0.22 | 99 | 1012.1 |
| 20260903084311 | 66 | 253 | 1.0 | 1.0 | 0.00 | 0.22 | 0.22 | 99 | 1012.2 |
| 20260903083807 | 66 | 301 | 1.0 | 1.0 | 0.00 | 0.22 | 0.22 | 99 | 1012.0 |
| 20260903083302 | 66 | 32 | 0.0 | 0.0 | 0.00 | 0.22 | 0.22 | 99 | 1012.0 |
| 20260903082801 | 66 | 49 | 0.0 | 0.0 | 0.00 | 0.22 | 0.22 | 99 | 1012.3 |
| 20260903082256 | 66 | 206 | 0.0 | 0.0 | 0.00 | 0.22 | 0.22 | 99 | 1012.4 |
| 20260903081751 | 66 | 210 | 0.0 | 0.0 | 0.05 | 0.22 | 0.22 | 99 | 1012.4 |
| 20260903081247 | 66 | 14 | 0.0 | 1.0 | 0.05 | 0.22 | 0.22 | 99 | 1012.2 |
| 20260903080743 | 66 | 152 | 0.0 | 0.0 | 0.00 | 0.21 | 0.21 | 99 | 1012.4 |
| 20260903080240 | 66 | 230 | 0.0 | 0.0 | 0.00 | 0.21 | 0.21 | 99 | 1012.8 |
| 20260903075740 | 66 | 154 | 0.0 | 0.0 | 0.00 | 0.21 | 0.21 | 99 | 1012.9 |
| 20260903075235 | 66 | 172 | 0.0 | 0.0 | 0.00 | 0.21 | 0.21 | 99 | 1012.9 |
| 20260903074734 | 66 | 255 | 0.0 | 0.0 | 0.00 | 0.21 | 0.21 | 99 | 1013.2 |
| 20260903074231 | 66 | 52 | 0.0 | 0.0 | 0.00 | 0.21 | 0.21 | 99 | 1013.0 |
| 20260903073724 | 66 | 28 | 0.0 | 0.0 | 0.00 | 0.21 | 0.21 | 99 | 1013.1 |
| 20260903073220 | 66 | 15 | 0.0 | 0.0 | 0.00 | 0.21 | 0.21 | 99 | 1012.8 |
| 20260903072715 | 66 | 344 | 0.0 | 0.0 | 0.00 | 0.21 | 0.21 | 99 | 1013.0 |
| 20260903072212 | 66 | 12 | 0.0 | 0.0 | 0.00 | 0.21 | 0.21 | 99 | 1012.9 |
| 20260903071708 | 66 | 15 | 0.0 | 0.0 | 0.00 | 0.21 | 0.21 | 99 | 1012.9 |
| 20260903071203 | 66 | 26 | 0.0 | 0.0 | 0.00 | 0.21 | 0.21 | 99 | 1012.7 |
| 20260903070703 | 66 | 107 | 0.0 | 0.0 | 0.00 | 0.21 | 0.21 | 99 | 1012.8 |
| 20260903070159 | 66 | 231 | 1.0 | 1.0 | 0.00 | 0.21 | 0.21 | 99 | 1013.1 |
| 20260903065653 | 66 | 347 | 0.0 | 0.0 | 0.00 | 0.21 | 0.21 | 99 | 1012.9 |
| 20260903065147 | 66 | 73 | 0.0 | 0.0 | 0.00 | 0.21 | 0.21 | 99 | 1012.8 |
| 20260903064646 | 66 | 141 | 0.0 | 0.0 | 0.00 | 0.21 | 0.21 | 99 | 1013.1 |
| 20260903064142 | 66 | 60 | 0.0 | 0.0 | 0.00 | 0.21 | 0.21 | 99 | 1013.1 |
| 20260903063637 | 66 | 6 | 0.0 | 0.0 | 0.00 | 0.21 | 0.21 | 99 | 1013.2 |
| 20260903063132 | 66 | 323 | 0.0 | 0.0 | 0.00 | 0.21 | 0.21 | 99 | 1013.1 |
| 20260903062628 | 66 | 153 | 0.0 | 0.0 | 0.00 | 0.21 | 0.21 | 99 | 1013.1 |
| 20260903062124 | 66 | 19 | 0.0 | 0.0 | 0.00 | 0.21 | 0.21 | 99 | 1013.0 |
| 20260903061618 | 65 | 81 | 0.0 | 0.0 | 0.00 | 0.21 | 0.21 | 99 | 1013.2 |
| 20260903061118 | 65 | 26 | 0.0 | 0.0 | 0.07 | 0.21 | 0.21 | 99 | 1013.7 |
| 20260903060613 | 65 | 125 | 0.0 | 0.0 | 0.07 | 0.21 | 0.21 | 99 | 1013.6 |
| 20260903060108 | 65 | 88 | 0.0 | 0.0 | 0.00 | 0.20 | 0.20 | 99 | 1013.8 |
| 20260903055606 | 65 | 83 | 0.0 | 0.0 | 0.05 | 0.20 | 0.20 | 99 | 1014.1 |
| 20260903055104 | 65 | 76 | 0.0 | 0.0 | 0.12 | 0.20 | 0.20 | 99 | 1014.3 |
| 20260903054559 | 65 | 59 | 0.0 | 0.0 | 0.07 | 0.19 | 0.19 | 99 | 1014.7 |
| 20260903054055 | 65 | 43 | 0.0 | 0.0 | 0.05 | 0.18 | 0.18 | 99 | 1014.6 |
| 20260903053550 | 65 | 287 | 1.0 | 2.0 | 0.12 | 0.18 | 0.18 | 99 | 1013.9 |
| 20260903053047 | 65 | 103 | 0.0 | 0.0 | 0.12 | 0.17 | 0.17 | 99 | 1013.4 |
| 20260903052542 | 65 | 112 | 0.0 | 0.0 | 0.12 | 0.16 | 0.16 | 99 | 1014.3 |
| 20260903052038 | 65 | 115 | 0.0 | 0.0 | 0.19 | 0.15 | 0.15 | 99 | 1014.6 |
| 20260903051537 | 65 | 90 | 0.0 | 0.0 | 0.24 | 0.14 | 0.14 | 99 | 1015.1 |
| 20260903051033 | 65 | 93 | 0.0 | 0.0 | 0.38 | 0.13 | 0.13 | 99 | 1015.3 |
| 20260903050532 | 65 | 99 | 0.0 | 0.0 | 0.50 | 0.11 | 0.11 | 99 | 1015.7 |
| 20260903050028 | 65 | 193 | 0.0 | 0.0 | 0.28 | 0.07 | 0.07 | 99 | 1016.1 |
| 20260903045527 | 65 | 295 | 1.0 | 1.0 | 0.12 | 0.03 | 0.03 | 99 | 1016.4 |
| 20260903045024 | 65 | 346 | 1.0 | 1.0 | 0.12 | 0.02 | 0.02 | 99 | 1016.1 |
| 20260903044520 | 65 | 345 | 0.0 | 1.0 | 0.05 | 0.01 | 0.01 | 99 | 1015.6 |
| 20260903044015 | 65 | 21 | 0.0 | 0.0 | 0.00 | 0.00 | 0.00 | 99 | 1015.7 |
| 20260903043510 | 65 | 272 | 0.0 | 0.0 | 0.00 | 0.00 | 0.00 | 99 | 1015.5 |
| 20260903043010 | 65 | 255 | 0.0 | 0.0 | 0.00 | 0.00 | 0.00 | 99 | 1015.6 |
| 20260903042505 | 65 | 144 | 0.0 | 0.0 | 0.00 | 0.00 | 0.00 | 99 | 1015.4 |
| 20260903042000 | 65 | 144 | 0.0 | 0.0 | 0.00 | 0.00 | 0.00 | 99 | 1015.6 |
| 20260903041457 | 65 | 155 | 0.0 | 0.0 | 0.00 | 0.00 | 0.00 | 99 | 1015.2 |
| 20260903040952 | 65 | 189 | 0.0 | 0.0 | 0.00 | 0.00 | 0.00 | 99 | 1015.4 |
| 20260903040450 | 65 | 184 | 0.0 | 0.0 | 0.00 | 0.00 | 0.00 | 99 | 1015.7 |
| 20260903035947 | 65 | 184 | 0.0 | 0.0 | 0.00 | 0.80 | 0.80 | 99 | 1015.6 |
| 20260903035442 | 65 | 186 | 0.0 | 0.0 | 0.00 | 0.80 | 0.80 | 99 | 1015.9 |
| 20260903034937 | 65 | 186 | 0.0 | 0.0 | 0.00 | 0.80 | 0.80 | 99 | 1015.6 |
| 20260903034432 | 65 | 193 | 0.0 | 0.0 | 0.00 | 0.80 | 0.80 | 99 | 1015.9 |
| 20260903033927 | 65 | 194 | 0.0 | 0.0 | 0.00 | 0.80 | 0.80 | 99 | 1015.9 |
| 20260903033423 | 65 | 2 | 0.0 | 0.0 | 0.00 | 0.80 | 0.80 | 99 | 1015.9 |
| 20260903032918 | 65 | 324 | 0.0 | 0.0 | 0.00 | 0.80 | 0.80 | 99 | 1015.7 |
| 20260903032413 | 65 | 335 | 0.0 | 0.0 | 0.00 | 0.80 | 0.80 | 99 | 1015.4 |
| 20260903031908 | 65 | 326 | 0.0 | 0.0 | 0.00 | 0.80 | 0.80 | 99 | 1015.3 |
| 20260903031407 | 65 | 357 | 0.0 | 0.0 | 0.00 | 0.80 | 0.80 | 99 | 1015.5 |
| 20260903030903 | 65 | 51 | 0.0 | 0.0 | 0.00 | 0.80 | 0.80 | 99 | 1015.1 |
| 20260903030359 | 65 | 51 | 0.0 | 0.0 | 0.00 | 0.80 | 0.80 | 99 | 1015.4 |
| 20260903025854 | 65 | 51 | 0.0 | 0.0 | 0.00 | 0.80 | 0.80 | 99 | 1015.6 |
| 20260903025349 | 65 | 51 | 0.0 | 0.0 | 0.00 | 0.80 | 0.80 | 99 | 1016.0 |
| 20260903024844 | 64 | 36 | 0.0 | 0.0 | 0.00 | 0.80 | 0.80 | 99 | 1016.0 |
| 20260903024338 | 64 | 57 | 0.0 | 0.0 | 0.00 | 0.80 | 0.80 | 99 | 1016.2 |
| 20260903023833 | 65 | 57 | 0.0 | 0.0 | 0.00 | 0.80 | 0.80 | 99 | 1016.1 |
| 20260903023329 | 65 | 57 | 0.0 | 0.0 | 0.00 | 0.80 | 0.80 | 99 | 1016.0 |
| 20260903022824 | 65 | 57 | 0.0 | 0.0 | 0.00 | 0.80 | 0.80 | 99 | 1016.0 |
| 20260903022323 | 65 | 57 | 0.0 | 0.0 | 0.00 | 0.80 | 0.80 | 99 | 1016.1 |
| 20260903021817 | 64 | 57 | 0.0 | 0.0 | 0.00 | 0.80 | 0.80 | 99 | 1016.1 |
| 20260903021313 | 64 | 57 | 0.0 | 0.0 | 0.00 | 0.80 | 0.80 | 99 | 1016.2 |
| 20260903020812 | 64 | 57 | 0.0 | 0.0 | 0.00 | 0.80 | 0.80 | 99 | 1016.4 |
| 20260903020307 | 64 | 35 | 0.0 | 0.0 | 0.00 | 0.80 | 0.80 | 99 | 1016.5 |
| 20260903015803 | 64 | 29 | 0.0 | 0.0 | 0.00 | 0.80 | 0.80 | 99 | 1016.4 |
| 20260903015258 | 64 | 34 | 0.0 | 0.0 | 0.00 | 0.80 | 0.80 | 99 | 1016.3 |
| 20260903014753 | 64 | 39 | 0.0 | 0.0 | 0.00 | 0.80 | 0.80 | 99 | 1016.1 |
| 20260903014253 | 64 | 39 | 0.0 | 0.0 | 0.00 | 0.80 | 0.80 | 99 | 1016.2 |
| 20260903013748 | 64 | 39 | 0.0 | 0.0 | 0.00 | 0.80 | 0.80 | 99 | 1016.2 |
| 20260903013247 | 64 | 62 | 0.0 | 0.0 | 0.00 | 0.80 | 0.80 | 99 | 1016.3 |
| 20260903012745 | 64 | 63 | 0.0 | 0.0 | 0.00 | 0.80 | 0.80 | 99 | 1016.2 |
| 20260903012240 | 64 | 63 | 0.0 | 0.0 | 0.00 | 0.80 | 0.80 | 99 | 1016.3 |
| 20260903011740 | 64 | 25 | 0.0 | 0.0 | 0.00 | 0.80 | 0.80 | 99 | 1016.6 |
| 20260903011233 | 64 | 25 | 0.0 | 0.0 | 0.00 | 0.80 | 0.80 | 99 | 1016.7 |
| 20260903010730 | 64 | 24 | 0.0 | 0.0 | 0.00 | 0.80 | 0.80 | 99 | 1016.8 |
| 20260903010229 | 64 | 9 | 0.0 | 0.0 | 0.00 | 0.80 | 0.80 | 99 | 1016.7 |
| 20260903005728 | 64 | 1 | 0.0 | 0.0 | 0.00 | 0.80 | 0.80 | 99 | 1016.5 |
| 20260903005223 | 64 | 333 | 0.0 | 0.0 | 0.00 | 0.80 | 0.80 | 99 | 1016.2 |
| 20260903004719 | 64 | 89 | 0.0 | 0.0 | 0.00 | 0.80 | 0.80 | 99 | 1016.5 |
| 20260903004214 | 64 | 110 | 0.0 | 0.0 | 0.00 | 0.80 | 0.80 | 99 | 1016.4 |
| 20260903003710 | 64 | 120 | 0.0 | 0.0 | 0.00 | 0.80 | 0.80 | 99 | 1016.7 |
| 20260903003205 | 64 | 68 | 0.0 | 0.0 | 0.00 | 0.80 | 0.80 | 99 | 1016.8 |
| 20260903002659 | 64 | 79 | 0.0 | 0.0 | 0.00 | 0.80 | 0.80 | 99 | 1016.7 |
| 20260903002154 | 64 | 40 | 0.0 | 0.0 | 0.00 | 0.80 | 0.80 | 99 | 1016.8 |
| 20260903001649 | 64 | 63 | 0.0 | 0.0 | 0.00 | 0.80 | 0.80 | 99 | 1016.6 |
| 20260903001143 | 64 | 351 | 1.0 | 1.0 | 0.00 | 0.80 | 0.80 | 99 | 1016.4 |
| 20260903000639 | 64 | 322 | 0.0 | 0.0 | 0.00 | 0.80 | 0.80 | 99 | 1016.7 |
| 20260903000138 | 64 | 19 | 0.0 | 0.0 | 0.00 | 0.80 | 0.80 | 99 | 1016.2 |
| 20260902235637 | 64 | 32 | 0.0 | 0.0 | 0.00 | 0.80 | 0.80 | 99 | 1016.0 |
| 20260902235132 | 0 | 0.0 | 0.0 | 0.00 | 0.00 | 0.00 | 1015.8 | ||
| 20260902234626 | 0 | 0.0 | 0.0 | 0.00 | 0.00 | 0.00 | 1015.9 | ||
| 20260902234124 | 0 | 0.0 | 0.0 | 0.00 | 0.00 | 0.00 | 1016.0 | ||
| 20260902233619 | 64 | 58 | 0.0 | 0.0 | 0.00 | 0.80 | 0.80 | 99 | 1015.8 |
| 20260902233114 | 64 | 58 | 0.0 | 0.0 | 0.00 | 0.80 | 0.80 | 99 | 1016.0 |
| 20260902232608 | 64 | 58 | 0.0 | 0.0 | 0.00 | 0.80 | 0.80 | 99 | 1016.0 |
| 20260902232102 | 64 | 65 | 0.0 | 0.0 | 0.00 | 0.80 | 0.80 | 99 | 1016.1 |
| 20260902231601 | 64 | 66 | 0.0 | 0.0 | 0.00 | 0.80 | 0.80 | 99 | 1016.3 |
| 20260902231056 | 64 | 68 | 0.0 | 0.0 | 0.00 | 0.80 | 0.80 | 99 | 1016.4 |
| 20260902230551 | 64 | 65 | 0.0 | 0.0 | 0.00 | 0.80 | 0.80 | 99 | 1016.6 |
| 20260902230050 | 65 | 99 | 0.0 | 0.0 | 0.00 | 0.80 | 0.80 | 99 | 1016.7 |
| 20260902225546 | 65 | 344 | 1.0 | 1.0 | 0.00 | 0.80 | 0.80 | 99 | 1016.9 |
| 20260902225045 | 65 | 64 | 0.0 | 0.0 | 0.00 | 0.80 | 0.80 | 99 | 1016.6 |
| 20260902224544 | 65 | 57 | 0.0 | 0.0 | 0.00 | 0.80 | 0.80 | 99 | 1016.6 |
| 20260902224040 | 65 | 61 | 0.0 | 0.0 | 0.00 | 0.80 | 0.80 | 99 | 1016.6 |
| 20260902223536 | 65 | 57 | 0.0 | 0.0 | 0.00 | 0.80 | 0.80 | 99 | 1017.1 |
| 20260902223035 | 65 | 63 | 0.0 | 0.0 | 0.00 | 0.80 | 0.80 | 99 | 1017.2 |
| 20260902222534 | 65 | 66 | 0.0 | 0.0 | 0.00 | 0.80 | 0.80 | 99 | 1017.1 |
| 20260902222032 | 65 | 57 | 0.0 | 0.0 | 0.00 | 0.80 | 0.80 | 99 | 1017.2 |
| 20260902221527 | 65 | 51 | 0.0 | 0.0 | 0.00 | 0.80 | 0.80 | 99 | 1017.4 |
| 20260902221022 | 65 | 66 | 0.0 | 0.0 | 0.00 | 0.80 | 0.80 | 99 | 1017.5 |
| 20260902220518 | 65 | 19 | 0.0 | 0.0 | 0.00 | 0.80 | 0.80 | 99 | 1017.7 |
| 20260902220012 | 65 | 59 | 0.0 | 0.0 | 0.00 | 0.80 | 0.80 | 99 | 1017.4 |
| 20260902215508 | 65 | 64 | 0.0 | 0.0 | 0.00 | 0.80 | 0.80 | 99 | 1017.4 |
| 20260902215004 | 65 | 27 | 0.0 | 0.0 | 0.00 | 0.80 | 0.80 | 99 | 1017.4 |
| 20260902214503 | 65 | 314 | 0.0 | 1.0 | 0.00 | 0.80 | 0.80 | 99 | 1017.3 |
| 20260902214002 | 65 | 333 | 0.0 | 1.0 | 0.00 | 0.80 | 0.80 | 99 | 1017.4 |
| 20260902213458 | 66 | 85 | 0.0 | 0.0 | 0.00 | 0.80 | 0.80 | 99 | 1017.1 |
| 20260902212957 | 66 | 63 | 0.0 | 1.0 | 0.00 | 0.80 | 0.80 | 99 | 1017.1 |
| 20260902212453 | 65 | 61 | 0.0 | 0.0 | 0.00 | 0.80 | 0.80 | 99 | 1016.9 |
| 20260902211949 | 65 | 3 | 0.0 | 0.0 | 0.00 | 0.80 | 0.80 | 99 | 1016.8 |
| 20260902211444 | 65 | 164 | 1.0 | 1.0 | 0.00 | 0.80 | 0.80 | 99 | 1017.0 |
| 20260902210940 | 66 | 283 | 2.0 | 2.0 | 0.00 | 0.80 | 0.80 | 99 | 1016.8 |
| 20260902210434 | 65 | 270 | 1.0 | 1.0 | 0.00 | 0.80 | 0.80 | 99 | 1017.0 |
| 20260902205932 | 65 | 73 | 0.0 | 0.0 | 0.00 | 0.80 | 0.80 | 99 | 1017.0 |
| 20260902205428 | 65 | 22 | 0.0 | 0.0 | 0.00 | 0.80 | 0.80 | 99 | 1017.2 |
| 20260902204923 | 66 | 80 | 0.0 | 1.0 | 0.00 | 0.80 | 0.80 | 99 | 1017.1 |
| 20260902204423 | 66 | 7 | 0.0 | 0.0 | 0.00 | 0.80 | 0.80 | 99 | 1017.0 |
| 20260902203919 | 66 | 55 | 0.0 | 0.0 | 0.00 | 0.80 | 0.80 | 99 | 1017.1 |
| 20260902203414 | 66 | 327 | 0.0 | 1.0 | 0.00 | 0.80 | 0.80 | 99 | 1017.0 |
| 20260902202913 | 66 | 54 | 0.0 | 0.0 | 0.00 | 0.80 | 0.80 | 99 | 1017.2 |
| 20260902202409 | 66 | 53 | 0.0 | 0.0 | 0.00 | 0.80 | 0.80 | 99 | 1016.8 |
| 20260902201905 | 65 | 63 | 0.0 | 0.0 | 0.00 | 0.80 | 0.80 | 99 | 1017.1 |
| 20260902201405 | 65 | 57 | 0.0 | 0.0 | 0.00 | 0.80 | 0.80 | 99 | 1017.2 |
| 20260902200900 | 66 | 67 | 0.0 | 0.0 | 0.00 | 0.80 | 0.80 | 99 | 1017.1 |
| 20260902200355 | 66 | 50 | 0.0 | 0.0 | 0.00 | 0.80 | 0.80 | 99 | 1017.1 |
| 20260902195850 | 66 | 104 | 0.0 | 0.0 | 0.00 | 0.80 | 0.80 | 99 | 1016.9 |
| 20260902195349 | 66 | 170 | 0.0 | 1.0 | 0.00 | 0.80 | 0.80 | 99 | 1016.8 |
| 20260902194845 | 66 | 46 | 0.0 | 0.0 | 0.00 | 0.80 | 0.80 | 99 | 1016.8 |
| 20260902194339 | 66 | 21 | 1.0 | 1.0 | 0.00 | 0.80 | 0.80 | 99 | 1017.0 |
| 20260902193835 | 67 | 62 | 0.0 | 0.0 | 0.00 | 0.80 | 0.80 | 99 | 1017.0 |
| 20260902193331 | 66 | 67 | 0.0 | 0.0 | 0.00 | 0.80 | 0.80 | 99 | 1017.1 |
| 20260902192829 | 66 | 70 | 0.0 | 0.0 | 0.00 | 0.80 | 0.80 | 99 | 1017.3 |
| 20260902192327 | 66 | 58 | 0.0 | 0.0 | 0.00 | 0.80 | 0.80 | 99 | 1017.4 |
| 20260902191822 | 65 | 57 | 0.0 | 0.0 | 0.00 | 0.80 | 0.80 | 99 | 1017.3 |
| 20260902191318 | 65 | 51 | 0.0 | 0.0 | 0.00 | 0.80 | 0.80 | 99 | 1017.5 |
| 20260902190813 | 66 | 54 | 0.0 | 0.0 | 0.07 | 0.80 | 0.80 | 99 | 1017.8 |
| 20260902190312 | 65 | 67 | 0.0 | 0.0 | 0.19 | 0.80 | 0.80 | 99 | 1017.6 |
| 20260902185808 | 64 | 66 | 0.0 | 0.0 | 0.42 | 0.79 | 0.79 | 99 | 1017.6 |
| 20260902185306 | 64 | 76 | 0.0 | 0.0 | 0.66 | 0.77 | 0.77 | 99 | 1017.7 |
| 20260902184759 | 64 | 62 | 0.0 | 0.0 | 0.61 | 0.73 | 0.73 | 99 | 1017.7 |
| 20260902184254 | 64 | 74 | 0.0 | 0.0 | 1.32 | 0.66 | 0.66 | 99 | 1017.9 |
| 20260902183750 | 64 | 251 | 1.0 | 1.0 | 1.91 | 0.61 | 0.61 | 99 | 1018.8 |
| 20260902183246 | 65 | 57 | 0.0 | 0.0 | 2.29 | 0.43 | 0.43 | 99 | 1018.8 |
| 20260902182742 | 65 | 85 | 0.0 | 0.0 | 1.75 | 0.29 | 0.29 | 99 | 1019.1 |
| 20260902182238 | 66 | 35 | 1.0 | 1.0 | 0.31 | 0.05 | 0.05 | 98 | 1019.2 |
| 20260902181735 | 66 | 297 | 2.0 | 2.0 | 0.00 | 0.00 | 0.00 | 97 | 1018.3 |
| 20260902181234 | 66 | 53 | 0.0 | 0.0 | 0.00 | 0.00 | 0.00 | 96 | 1017.5 |
| 20260902180729 | 66 | 67 | 0.0 | 0.0 | 0.00 | 0.00 | 0.00 | 96 | 1017.3 |
| 20260902180224 | 66 | 63 | 0.0 | 0.0 | 0.00 | 0.00 | 0.00 | 96 | 1017.3 |
| 20260902175719 | 67 | 71 | 0.0 | 0.0 | 0.00 | 0.00 | 0.00 | 96 | 1017.4 |
| 20260902175215 | 67 | 71 | 0.0 | 0.0 | 0.00 | 0.00 | 0.00 | 95 | 1017.7 |
| 20260902174711 | 67 | 72 | 0.0 | 0.0 | 0.00 | 0.00 | 0.00 | 95 | 1017.6 |
| 20260902174207 | 67 | 71 | 0.0 | 0.0 | 0.00 | 0.00 | 0.00 | 95 | 1017.9 |
| 20260902173702 | 67 | 61 | 0.0 | 0.0 | 0.00 | 0.00 | 0.00 | 95 | 1017.7 |
| 20260902173156 | 67 | 83 | 0.0 | 0.0 | 0.00 | 0.00 | 0.00 | 96 | 1017.7 |
| 20260902172651 | 67 | 62 | 0.0 | 0.0 | 0.00 | 0.00 | 0.00 | 96 | 1017.6 |
| 20260902172150 | 67 | 59 | 0.0 | 0.0 | 0.00 | 0.00 | 0.00 | 96 | 1017.8 |
| 20260902171645 | 67 | 60 | 0.0 | 0.0 | 0.00 | 0.00 | 0.00 | 96 | 1017.9 |
| 20260902171141 | 67 | 61 | 0.0 | 0.0 | 0.00 | 0.00 | 0.00 | 96 | 1017.7 |
| 20260902170637 | 67 | 63 | 0.0 | 0.0 | 0.00 | 0.00 | 0.00 | 96 | 1017.8 |
| 20260902170132 | 67 | 69 | 0.0 | 0.0 | 0.00 | 0.00 | 0.00 | 95 | 1017.9 |
| 20260902165627 | 67 | 63 | 0.0 | 0.0 | 0.00 | 0.00 | 0.00 | 95 | 1017.9 |
| 20260902165126 | 67 | 68 | 0.0 | 0.0 | 0.00 | 0.00 | 0.00 | 96 | 1018.2 |
| 20260902164622 | 67 | 34 | 0.0 | 0.0 | 0.00 | 0.00 | 0.00 | 96 | 1018.2 |
| 20260902164121 | 66 | 21 | 0.0 | 0.0 | 0.00 | 0.00 | 0.00 | 95 | 1018.2 |
| 20260902163616 | 66 | 60 | 0.0 | 0.0 | 0.00 | 0.00 | 0.00 | 96 | 1017.9 |
| 20260902163115 | 66 | 103 | 0.0 | 0.0 | 0.00 | 0.00 | 0.00 | 97 | 1018.0 |
| 20260902162614 | 66 | 113 | 0.0 | 0.0 | 0.00 | 0.00 | 0.00 | 97 | 1018.2 |
| 20260902162109 | 66 | 1 | 0.0 | 0.0 | 0.00 | 0.00 | 0.00 | 97 | 1017.9 |
| 20260902161604 | 66 | 66 | 0.0 | 0.0 | 0.00 | 0.00 | 0.00 | 98 | 1017.8 |
| 20260902161100 | 66 | 63 | 0.0 | 0.0 | 0.00 | 0.00 | 0.00 | 98 | 1017.8 |
| 20260902160556 | 66 | 60 | 0.0 | 0.0 | 0.00 | 0.00 | 0.00 | 97 | 1017.9 |
| 20260902160051 | 66 | 72 | 0.0 | 0.0 | 0.00 | 0.00 | 0.00 | 97 | 1018.0 |
| 20260902155544 | 66 | 70 | 0.0 | 0.0 | 0.00 | 0.00 | 0.00 | 96 | 1018.3 |
| 20260902155043 | 66 | 49 | 0.0 | 0.0 | 0.00 | 0.00 | 0.00 | 98 | 1018.0 |
| 20260902154538 | 66 | 357 | 0.0 | 0.0 | 0.00 | 0.00 | 0.00 | 98 | 1018.2 |
| 20260902154033 | 66 | 58 | 0.0 | 0.0 | 0.00 | 0.00 | 0.00 | 98 | 1018.2 |
| 20260902153531 | 66 | 43 | 0.0 | 0.0 | 0.00 | 0.00 | 0.00 | 97 | 1017.9 |
| 20260902153027 | 66 | 61 | 0.0 | 0.0 | 0.00 | 0.00 | 0.00 | 97 | 1018.3 |
| 20260902152524 | 66 | 64 | 0.0 | 0.0 | 0.00 | 0.00 | 0.00 | 97 | 1018.2 |
| 20260902152019 | 66 | 321 | 0.0 | 1.0 | 0.00 | 0.00 | 0.00 | 96 | 1018.4 |
| 20260902151515 | 65 | 318 | 0.0 | 1.0 | 0.00 | 0.00 | 0.00 | 96 | 1017.9 |
| 20260902151014 | 65 | 58 | 0.0 | 0.0 | 0.00 | 0.00 | 0.00 | 98 | 1018.2 |
| 20260902150509 | 65 | 35 | 0.0 | 0.0 | 0.00 | 0.00 | 0.00 | 99 | 1018.3 |
| 20260902150004 | 64 | 13 | 0.0 | 0.0 | 0.00 | 0.00 | 0.00 | 98 | 1018.5 |
| 20260902145459 | 65 | 17 | 0.0 | 0.0 | 0.00 | 0.00 | 0.00 | 99 | 1018.5 |
| 20260902144953 | 64 | 26 | 0.0 | 0.0 | 0.00 | 0.00 | 0.00 | 99 | 1018.3 |
| 20260902144450 | 64 | 52 | 0.0 | 0.0 | 0.00 | 0.00 | 0.00 | 99 | 1018.4 |
| 20260902143944 | 64 | 52 | 0.0 | 0.0 | 0.00 | 0.00 | 0.00 | 99 | 1018.5 |
| 20260902143440 | 64 | 52 | 0.0 | 0.0 | 0.00 | 0.00 | 0.00 | 99 | 1018.2 |
| 20260902142934 | 64 | 47 | 0.0 | 0.0 | 0.00 | 0.00 | 0.00 | 99 | 1018.5 |
| 20260902142430 | 64 | 40 | 0.0 | 0.0 | 0.00 | 0.00 | 0.00 | 99 | 1018.4 |
| 20260902141925 | 63 | 14 | 0.0 | 0.0 | 0.00 | 0.00 | 0.00 | 99 | 1017.9 |